Location: Unspecified
(58.7730°N, 5.8460°E)
Time: 04:21:38
(UTC+02:00)

Cosmos 2058 - Visible Passes

Search period start: 02 October 2014 00:00
Search period end: 12 October 2014 00:00
Orbit: 570 x 594 km, 82.5° (Epoch: 01 October)

Date Brightness Start Highest point End Pass type
(mag) Time Alt. Az. Time Alt. Az. Time Alt. Az.
02 Oct 5.1 20:45:25 10° NNW 20:49:06 30° W 20:52:46 10° SSW visible
03 Oct 5.5 20:51:18 10° NW 20:54:41 24° W 20:58:03 10° SW visible
04 Oct 5.9 20:57:16 10° NW 21:00:14 19° W 21:03:12 10° SW visible
05 Oct 6.2 21:03:20 10° NW 21:05:45 15° W 21:08:11 10° WSW visible
06 Oct 3.5 19:30:45 10° NNW 19:34:57 67° W 19:39:09 10° S visible
06 Oct 6.4 21:09:40 10° NW 21:11:15 12° WNW 21:12:50 10° W visible
07 Oct 4.0 19:36:29 10° NNW 19:40:36 51° W 19:44:42 10° S visible
08 Oct 4.6 19:42:14 10° NNW 19:46:12 40° W 19:50:10 10° SSW visible
09 Oct 6.7 06:43:01 10° E 06:44:16 11° ENE 06:45:32 10° ENE visible
09 Oct 5.1 19:48:01 10° NNW 19:51:47 32° W 19:55:32 10° SSW visible
10 Oct 6.4 06:47:30 10° ESE 06:49:44 14° E 06:51:59 10° NE visible
10 Oct 5.6 19:53:51 10° NNW 19:57:20 25° W 20:00:48 10° SW visible
11 Oct 6.2 06:52:24 10° SE 06:55:13 18° E 06:58:04 10° NE visible
11 Oct 6.0 19:59:44 10° NW 20:02:51 20° W 20:05:57 10° SW visible
